sat.trackr.live / text

‹ back to catalog

JACKAL X-1L-001

NORAD 59127 · 2024-043AF

PAYLOAD ACTIVE UNKNOWN

§ Identity

Operator
Country
US
Launch date
2024-03-04
Launch site
AFWTR
Launch vehicle
Mass (kg)
RCS (m²)

External: N2YO · Heavens-Above · Gunter

§ Orbital elements

Epoch: 2026-05-25T03:09:14.910912Z

Period
93.28 min
Inclination
97.5552°
Eccentricity
0.0005710
Mean motion
15.43737357 rev/d
Perigee alt
431.2 km
Apogee alt
439.0 km
Semi-major
6,813.2 km
B*
3.3522e-4
RAAN
289.2272°
Arg perigee
303.8229°
Mean anomaly
56.2474°
Rev number
12,399

§ Raw data

JACKAL X-1L-0011 59127U 24043AF  26145.13142258  .00015070  00000+0  33522-3 0  99912 59127  97.5552 289.2272 0005710 303.8229  56.2474 15.43737357123998

JSON: /api/v1/satellites/59127 · /tle

For live sub-satellite position, see the globe view (requires WebGL).

§ Visibility from observer

Set your observer location to see the next 7 days of passes ≥ 10°. The values pass through the URL so the page stays shareable.

No JS? Fill the form by hand. The geolocation button needs JavaScript.